Content
SEND FEEDBACK

Daily
Averages
Monthly
Summary
United States of America

ASHEVILLE, NORTH CAROLINA


Home > North America > United States > North Carolina
Elevation: 2240 feet     Latitude: 35 36N     Longitude: 082 32W

WEATHER
 
SELECT A DAY
Number of Records: 231,052;   Date Range: 1/1/95 - 12/16/14
 
SHARE

PRINT THIS DATA

[ ← Previous Day ]
WEATHER ALMANAC - JANUARY 18, 2013
[ Next Day → ]
[ °C ]   °F
Weather ElementAverageHighLow
Temperature35.8 °F48 °F (3:54 pm)28.9 °F (10:54 pm)
Dewpoint22.5 °F28.9 °F (7:54 pm)16 °F (1:54 pm)
Humidity62.4 %92 % (10:54 pm)29 % (2:54 pm)
Barometer30.42 in30.50 in (9:54 pm)30.26 in (12:54 am)
Wind Speed6.8 mph16.1 mph (12:54 am)
Wind Gust24.2 mph (12:54 am)
Weather ElementAverage
Visibility10 mi
Wind DirectionSSW (215 °)

Weather ElementTotal
Precipitation---
Heating Degree Days26.6 (Base 65)
Averaged from 24 records on January 18, 2013
WEATHER CONDITIONS BREAKOUT
WIND DIRECTION BREAKOUT
WEATHER BY HOUR - JANUARY 18, 2013
[ °C ]   °F
Local TimeTemperatureDewpointHumidityBarometerVisibilityWind DirectionWind SpeedGust SpeedPrecipitationEventsConditions
12:54 AM32.0 °F26.1 °F79 %30.26 in10.0 miNNW (340°)16.1 mph24.2 mphClear
1:54 AM32.0 °F24.1 °F73 %30.29 in10.0 miNorth (350°)8.1 mphClear
2:54 AM30.9 °F23.0 °F72 %30.32 in10.0 miNorth (350°)9.2 mph18.4 mphClear
3:54 AM30.9 °F21.9 °F69 %30.32 in10.0 miNNW (340°)13.8 mph20.7 mphClear
4:54 AM30.9 °F21.9 °F69 %30.32 in10.0 miNorth (350°)12.7 mph20.7 mphClear
5:54 AM30.9 °F21.0 °F67 %30.32 in10.0 miNorth (10°)12.7 mph21.9 mphClear
6:54 AM30.0 °F21.9 °F72 %30.35 in10.0 miNorth (350°)10.4 mph19.6 mphClear
7:54 AM30.0 °F23.0 °F75 %30.40 in10.0 miNorth (350°)10.4 mphClear
8:54 AM30.9 °F24.1 °F76 %30.44 in10.0 miNorth (350°)11.5 mphClear
9:54 AM33.1 °F24.1 °F70 %30.48 in10.0 miNorth (360°)12.7 mph20.7 mphClear
10:54 AM35.6 °F23.0 °F60 %30.47 in10.0 miNorth (350°)11.5 mph20.7 mphClear
11:54 AM39.9 °F21.9 °F49 %30.48 in10.0 miNNW (330°)11.5 mphClear
12:54 PM42.1 °F17.1 °F37 %30.45 in10.0 miNNW (340°)10.4 mphClear
1:54 PM45.0 °F16.0 °F31 %30.44 in10.0 miWNW (300°)5.8 mphClear
2:54 PM46.9 °F16.0 °F29 %30.43 in10.0 miNorth (350°)3.5 mphClear
3:54 PM48.0 °F18.0 °F30 %30.43 in10.0 miNNW (340°)3.5 mphClear
4:54 PM48.0 °F18.0 °F30 %30.44 in10.0 miCalmClear
5:54 PM45.0 °F19.0 °F36 %30.45 in10.0 miCalmClear
6:54 PM39.0 °F24.1 °F55 %30.48 in10.0 miCalmClear
7:54 PM35.1 °F28.9 °F78 %30.49 in10.0 miCalmClear
8:54 PM33.1 °F27.0 °F78 %30.49 in10.0 miCalmClear
9:54 PM30.9 °F26.1 °F82 %30.50 in10.0 miCalmClear
10:54 PM28.9 °F27.0 °F92 %30.49 in10.0 miCalmClear
11:54 PM28.9 °F26.1 °F89 %30.47 in10.0 miCalmClear
Hourly data recorded from KAVL, located miles away from Asheville, North Carolina







STORIES FROM OUR PARTNERS